Location: Albany
(35.0000°S, 118.0000°E)
Time: 22:00:15
(UTC-04:00)

JAS-1B - Visible Passes

Search period start: 28 May 2017 00:00
Search period end: 07 June 2017 00:00
Orbit: 911 x 1744 km, 99.1° (Epoch: 27 May)

Date Brightness Start Highest point End Pass type
(mag) Time Alt. Az. Time Alt. Az. Time Alt. Az.
28 May 9.6 15:44:53 10° S 15:46:58 18° S 15:46:58 18° S visible
29 May 10.2 14:13:37 10° SSE 14:13:55 11° SSE 14:13:55 11° SSE visible
29 May 9.6 16:04:16 10° S 16:06:09 17° S 16:06:09 17° S visible
30 May 10.1 14:32:28 10° SSE 14:33:06 12° SSE 14:33:06 12° SSE visible
30 May 9.6 16:23:49 10° S 16:25:21 15° SSW 16:25:21 15° SSW visible
31 May 10.0 14:51:27 10° SSE 14:52:17 13° SSE 14:52:17 13° SSE visible
31 May 9.7 16:43:35 10° SSW 16:44:32 12° SSW 16:44:32 12° SSW visible
01 Jun 9.9 15:10:34 10° S 15:11:29 14° S 15:11:29 14° S visible
01 Jun 9.7 17:03:43 10° SSW 17:03:43 10° SSW 17:03:43 10° SSW visible
02 Jun 9.9 15:29:47 10° S 15:30:41 13° S 15:30:41 13° S visible
03 Jun 9.8 15:49:06 10° S 15:49:52 13° S 15:49:52 13° S visible
04 Jun 9.8 16:08:34 10° S 16:09:05 12° S 16:09:05 12° S visible
05 Jun 9.8 16:28:14 10° S 16:28:16 10° S 16:28:16 10° S visible
